DW3839 Weather Reports


time (UTC)temp
F
wind
direction
speed
knots
gust
knots
rain 1hr
in
rain 24hr
in
rain mn
in
humidity
%
barometer
mb
20260505140511 71 210 4.3 9.6 0.00 0.00 0.00 57 1011.6
20260505140111 71 220 4.3 9.6 0.00 0.00 0.00 58 1011.6
20260505130105 66 210 1.7 5.2 0.00 0.00 0.00 64 1011.8
20260505124612 65 284 3.5 10.4 0.00 0.00 0.00 64 1012.1
20260505124114 65 221 2.6 7.0 0.00 0.00 0.00 64 1012.1
20260505123502 65 223 0.9 7.8 0.00 0.00 0.00 65 1012.1
20260505123115 64 191 2.6 7.8 0.00 0.00 0.00 64 1012.1
20260505122606 64 215 3.5 8.7 0.00 0.00 0.00 65 1011.9
20260505122108 64 188 1.7 8.7 0.00 0.00 0.00 64 1011.9
20260505121610 63 211 3.5 15.6 0.00 0.00 0.00 66 1011.9
20260505121113 63 203 2.6 15.6 0.00 0.00 0.00 66 1011.9
20260505120507 63 304 3.5 9.6 0.00 0.00 0.00 67 1011.9
20260505120108 62 212 4.3 9.6 0.00 0.00 0.00 65 1011.9
20260505115606 62 251 2.6 10.4 0.00 0.00 0.00 68 1011.6
20260505115112 62 225 1.7 9.6 0.00 0.00 0.00 66 1011.6
20260505114616 62 246 3.5 11.3 0.00 0.00 0.00 65 1011.6
20260505114115 62 207 4.3 17.4 0.00 0.00 0.00 67 1011.6
20260505113614 62 262 5.2 17.4 0.00 0.00 0.00 67 1011.6
20260505113117 61 216 3.5 8.7 0.00 0.00 0.00 67 1011.6
20260505112507 61 217 3.5 9.6 0.00 0.00 0.00 68 1011.5
20260505112103 61 192 3.5 10.4 0.00 0.00 0.00 68 1011.5
20260505111611 61 178 4.3 10.4 0.00 0.00 0.00 67 1011.5
20260505111110 61 360 3.5 8.7 0.00 0.00 0.00 69 1011.2
20260505110517 60 360 2.6 9.6 0.00 0.00 0.00 69 1011.2
20260505110115 60 196 4.3 9.6 0.00 0.00 0.00 69 1011.2
20260505102117 60 214 3.5 8.7 0.00 0.00 0.00 69 1010.8
20260505101617 60 203 3.5 10.4 0.00 0.00 0.00 69 1010.8
20260505101120 60 217 2.6 13.9 0.00 0.00 0.00 68 1010.8
20260505100510 59 217 3.5 13.9 0.00 0.00 0.00 70 1010.8
20260505100111 59 203 3.5 10.4 0.00 0.00 0.00 70 1010.8
20260505095611 59 205 0.9 7.8 0.00 0.00 0.00 70 1010.6
20260505095116 59 178 1.7 10.4 0.00 0.00 0.00 70 1010.6
20260505094618 59 202 5.2 10.4 0.00 0.00 0.00 70 1010.6
20260505094119 59 204 4.3 9.6 0.00 0.00 0.00 70 1010.6
20260505093624 59 234 3.5 11.3 0.00 0.00 0.00 71 1010.6
20260505093124 59 180 3.5 11.3 0.00 0.00 0.00 70 1010.6
20260505092508 60 190 2.6 9.6 0.00 0.00 0.00 70 1010.5
20260505092108 60 194 1.7 9.6 0.00 0.00 0.00 70 1010.5
20260505091611 60 194 3.5 7.8 0.00 0.00 0.00 70 1010.5
20260505091112 60 233 1.7 7.8 0.00 0.00 0.00 70 1010.5
20260505090523 60 210 0.9 7.8 0.00 0.00 0.00 70 1010.5
20260505090119 60 195 3.5 7.8 0.00 0.00 0.00 70 1010.5
20260505085508 60 215 3.5 8.7 0.00 0.00 0.00 70 1010.6
20260505085108 60 200 3.5 8.7 0.00 0.00 0.00 71 1010.6
20260505084610 60 210 1.7 9.6 0.00 0.00 0.00 70 1010.6
20260505084112 60 186 3.5 9.6 0.00 0.00 0.00 71 1010.6
20260505083613 60 199 2.6 7.0 0.00 0.00 0.00 71 1010.6
20260505083119 60 207 2.6 6.1 0.00 0.00 0.00 71 1010.6
20260505082616 60 215 3.5 6.1 0.00 0.00 0.00 71 1010.6
20260505082114 60 233 2.6 7.0 0.00 0.00 0.00 72 1010.6
20260505081620 60 184 2.6 7.0 0.00 0.00 0.00 71 1010.6
20260505081119 60 190 2.6 7.0 0.00 0.00 0.00 71 1010.5
20260505080513 60 250 2.6 7.8 0.00 0.00 0.00 72 1010.5
20260505080110 60 220 2.6 7.0 0.00 0.00 0.00 71 1010.5
20260505075608 60 207 4.3 7.0 0.00 0.00 0.00 71 1010.5
20260505075109 61 175 4.3 7.8 0.00 0.00 0.00 71 1010.5
20260505074615 61 220 2.6 7.8 0.00 0.00 0.00 72 1010.5
20260505074115 61 213 2.6 7.0 0.00 0.00 0.00 71 1010.2
20260505073618 60 202 2.6 7.0 0.00 0.00 0.00 71 1010.2
20260505073121 60 207 2.6 7.8 0.00 0.00 0.00 72 1010.2
20260505072622 60 207 2.6 7.8 0.00 0.00 0.00 72 1010.2
20260505072010 60 194 1.7 7.8 0.00 0.00 0.00 72 1010.2
20260505071608 60 219 2.6 8.7 0.00 0.00 0.00 72 1010.2
20260505071108 60 196 1.7 8.7 0.00 0.00 0.00 73 1010.1
20260505070516 60 214 2.6 7.8 0.00 0.00 0.00 73 1010.1
20260505070116 60 189 1.7 10.4 0.00 0.00 0.00 74 1010.1
20260505065616 60 198 4.3 10.4 0.00 0.00 0.00 74 1010.1
20260505065004 59 239 2.6 7.8 0.00 0.00 0.00 75 1010.1
20260505064605 59 252 0.9 7.8 0.00 0.00 0.00 76 1010.1
20260505064109 59 206 1.7 5.2 0.00 0.00 0.00 76 1010.1
20260505063610 59 172 2.6 5.2 0.00 0.00 0.00 76 1010.1
20260505063113 59 186 1.7 4.3 0.00 0.00 0.00 75 1010.1
20260505062614 60 203 0.9 4.3 0.00 0.00 0.00 74 1010.3
20260505062118 60 171 1.7 4.3 0.00 0.00 0.00 74 1010.3
20260505061621 60 200 0.9 4.3 0.00 0.00 0.00 74 1010.3
20260505061121 60 219 1.7 4.3 0.00 0.00 0.00 73 1010.3
20260505060513 61 188 0.9 5.2 0.00 0.00 0.00 73 1010.3
20260505060111 61 196 1.7 5.2 0.00 0.00 0.00 72 1010.3
20260505055613 61 207 1.7 6.1 0.00 0.00 0.00 72 1010.2
20260505055112 61 199 1.7 6.1 0.00 0.00 0.00 72 1010.2
20260505054614 61 231 2.6 4.3 0.00 0.00 0.00 73 1010.2
20260505054118 61 168 0.9 4.3 0.00 0.00 0.00 73 1010.2
20260505053620 61 212 1.7 3.5 0.00 0.00 0.00 72 1010.2
20260505053122 61 213 0.0 4.3 0.00 0.00 0.00 72 1010.2
20260505052622 61 215 1.7 4.3 0.00 0.00 0.00 72 1010.3
20260505052005 61 191 1.7 4.3 0.00 0.00 0.00 73 1010.3
20260505051603 60 217 0.9 4.3 0.00 0.00 0.00 73 1010.3
20260505051106 60 190 1.7 4.3 0.00 0.00 0.00 73 1010.4
20260505050523 60 191 0.9 3.5 0.00 0.00 0.00 74 1010.4
20260505041616 62 204 2.6 6.1 0.00 0.00 0.00 69 1010.6
20260505041116 62 229 1.7 6.1 0.00 0.00 0.00 69 1010.6
20260505040511 63 209 0.9 5.2 0.00 0.00 0.00 68 1010.6
20260505040109 63 221 2.6 5.2 0.00 0.00 0.00 68 1010.6
20260505035609 63 192 0.9 4.3 0.00 0.00 0.00 68 1010.5
20260505035109 63 219 0.9 6.1 0.00 0.00 0.00 67 1010.5
20260505034610 63 186 0.9 7.8 0.00 0.00 0.00 67 1010.5
20260505034112 63 246 2.6 7.8 0.00 0.00 0.00 67 1010.4
20260505033611 63 188 0.9 9.6 0.00 0.00 0.00 67 1010.4
20260505033115 63 194 3.5 9.6 0.00 0.00 0.00 66 1010.4
20260505032614 63 232 1.7 5.2 0.00 0.00 0.00 67 1010.5
20260505032116 63 234 1.7 5.2 0.00 0.00 0.00 66 1010.5
20260505031619 63 196 0.9 6.1 0.00 0.00 0.00 66 1010.5
20260505031119 64 226 2.6 8.7 0.00 0.00 0.00 66 1010.5
20260505030517 64 205 3.5 8.7 0.00 0.00 0.00 65 1010.5
20260505030117 64 217 2.6 7.0 0.00 0.00 0.00 63 1010.5
20260505025622 64 218 1.7 6.1 0.00 0.00 0.00 62 1010.3
20260505025006 65 194 1.7 4.3 0.00 0.00 0.00 62 1010.3
20260505024604 65 208 0.9 4.3 0.00 0.00 0.00 61 1010.3
20260505024104 65 210 1.7 5.2 0.00 0.00 0.00 60 1010.4
20260505023604 65 246 1.7 7.0 0.00 0.00 0.00 60 1010.4
20260505023105 66 180 1.7 7.0 0.00 0.00 0.00 59 1010.4
20260505022612 65 224 3.5 7.0 0.00 0.00 0.00 60 1010.3
20260505022115 65 213 2.6 7.0 0.00 0.00 0.00 59 1010.3
20260505021612 66 194 3.5 7.8 0.00 0.00 0.00 59 1010.3
20260505021112 66 182 4.3 7.0 0.00 0.00 0.00 58 1010.3
20260505020519 66 220 3.5 11.3 0.00 0.00 0.00 59 1010.3
20260505020119 66 180 1.7 7.0 0.00 0.00 0.00 58 1010.3
20260505015511 66 227 2.6 6.1 0.00 0.00 0.00 58 1010.0
20260505015110 66 219 1.7 5.2 0.00 0.00 0.00 57 1010.0
20260505014609 66 201 1.7 4.3 0.00 0.00 0.00 57 1010.0
20260505014107 66 194 1.7 5.2 0.00 0.00 0.00 57 1010.1
20260505013608 67 236 2.6 5.2 0.00 0.00 0.00 57 1010.1
20260505013112 67 205 1.7 4.3 0.00 0.00 0.00 56 1010.1
20260505012613 67 291 0.9 4.3 0.00 0.00 0.00 55 1009.7
20260505012119 68 223 2.6 6.1 0.00 0.00 0.00 55 1009.7
20260505011622 68 186 1.7 6.1 0.00 0.00 0.00 54 1009.7
20260505011123 68 175 2.6 5.2 0.00 0.00 0.00 55 1009.6
20260505010514 68 234 0.9 7.8 0.00 0.00 0.00 54 1009.6
20260505010114 69 213 1.7 9.6 0.00 0.00 0.00 54 1009.6
20260505005615 69 179 2.6 9.6 0.00 0.00 0.00 54 1009.6
20260505005118 68 235 2.6 6.1 0.00 0.00 0.00 54 1009.6
20260505004625 68 160 3.5 6.1 0.00 0.00 0.00 54 1009.6
20260505004124 68 189 2.6 6.1 0.00 0.00 0.00 54 1009.6
20260505003623 68 177 3.5 7.8 0.00 0.00 0.00 55 1009.6
20260505003004 69 32 2.6 9.6 0.00 0.00 0.00 53 1009.6
20260505002604 69 189 1.7 8.7 0.00 0.00 0.00 54 1009.4
20260505002105 69 242 3.5 8.7 0.00 0.00 0.00 51 1009.4
20260505001612 70 228 3.5 9.6 0.00 0.00 0.00 52 1009.4
20260505001115 70 224 1.7 6.1 0.00 0.00 0.00 51 1009.5
20260505000506 70 216 2.6 8.7 0.00 0.00 0.00 49 1009.5
20260505000110 71 218 3.5 8.7 0.00 0.00 0.00 51 1009.5
20260504235608 71 213 3.5 8.7 0.00 0.00 0.00 50 1009.3
20260504235110 71 96 2.6 10.4 0.00 0.00 0.00 49 1009.3
20260504234643 71 202 5.2 10.4 0.00 0.00 0.00 49 1009.3
20260504234114 71 223 4.3 9.6 0.00 0.00 0.00 49 1009.2
20260504233119 71 209 4.3 10.4 0.00 0.00 0.00 49 1009.2
20260504232618 71 236 3.5 9.6 0.00 0.00 0.00 48 1009.1
20260504232006 71 249 2.6 9.6 0.00 0.00 0.00 48 1009.1
20260504231606 71 202 4.3 12.2 0.00 0.00 0.00 48 1009.1
20260504231104 72 213 5.2 12.2 0.00 0.00 0.00 46 1009.1
20260504230515 72 198 1.7 11.3 0.00 0.00 0.00 46 1009.1
20260504230115 72 219 1.7 11.3 0.00 0.00 0.00 47 1009.1
20260504225616 73 240 3.5 11.3 0.00 0.00 0.00 45 1009.1
20260504225116 72 211 5.2 11.3 0.00 0.00 0.00 45 1009.1
20260504224617 73 212 5.2 13.0 0.00 0.00 0.00 44 1009.1
20260504224124 73 205 4.3 13.0 0.00 0.00 0.00 47 1009.1
20260504223622 73 226 6.1 12.2 0.00 0.00 0.00 44 1009.1
20260504223004 73 175 4.3 13.0 0.00 0.00 0.00 44 1009.1
20260504222605 73 219 6.1 14.8 0.00 0.00 0.00 44 1009.1
20260504222105 73 268 6.1 14.8 0.00 0.00 0.00 44 1009.1
20260504221610 73 162 4.3 9.6 0.00 0.00 0.00 46 1009.1
20260504221112 74 219 2.6 17.4 0.00 0.00 0.00 45 1008.9
20260504220522 74 151 7.0 17.4 0.00 0.00 0.00 43 1008.9
20260504220011 74 221 6.1 12.2 0.00 0.00 0.00 42 1008.9
20260504215605 74 212 3.5 15.6 0.00 0.00 0.00 44 1009.0
20260504215107 74 207 3.5 15.6 0.00 0.00 0.00 42 1009.0
20260504214609 75 207 5.2 13.9 0.00 0.00 0.00 42 1009.0
20260504214107 75 143 5.2 12.2 0.00 0.00 0.00 43 1009.0
20260504213617 75 241 5.2 12.2 0.00 0.00 0.00 45 1009.0
20260504213115 75 179 2.6 9.6 0.00 0.00 0.00 44 1009.0
20260504212618 75 244 3.5 11.3 0.00 0.00 0.00 40 1009.0
20260504212116 75 197 6.1 11.3 0.00 0.00 0.00 42 1009.0
20260504211619 75 235 5.2 14.8 0.00 0.00 0.00 42 1009.0
20260504211122 75 192 5.2 14.8 0.00 0.00 0.00 41 1009.1
20260504210517 76 266 2.6 13.9 0.00 0.00 0.00 41 1009.1
20260504210117 76 213 4.3 13.9 0.00 0.00 0.00 40 1009.1
20260504205621 76 167 5.2 9.6 0.00 0.00 0.00 39 1009.1
20260504205121 76 297 2.6 7.8 0.00 0.00 0.00 42 1009.1
20260504204502 76 158 3.5 8.7 0.00 0.00 0.00 41 1009.1
20260504204105 76 291 1.7 9.6 0.00 0.00 0.00 41 1009.2
20260504203609 76 240 3.5 12.2 0.00 0.00 0.00 42 1009.2
20260504203110 76 191 5.2 16.5 0.00 0.00 0.00 41 1009.2
20260504202614 77 223 3.5 10.4 0.00 0.00 0.00 43 1009.3
20260504202113 76 154 1.7 10.4 0.00 0.00 0.00 43 1009.3
20260504201619 76 139 4.3 13.9 0.00 0.00 0.00 40 1009.3
20260504201119 77 188 5.2 13.9 0.00 0.00 0.00 38 1009.7
20260504200517 76 199 5.2 10.4 0.00 0.00 0.00 40 1009.7
20260504200116 76 255 2.6 7.8 0.00 0.00 0.00 39 1009.7
20260504195620 76 215 2.6 12.2 0.00 0.00 0.00 38 1010.0
20260504195119 76 254 3.5 13.0 0.00 0.00 0.00 42 1010.0
20260504194620 76 236 3.5 13.0 0.00 0.00 0.00 41 1010.0
20260504194120 76 261 3.5 10.4 0.00 0.00 0.00 43 1010.0
20260504193507 76 173 4.3 10.4 0.00 0.00 0.00 40 1010.0
20260504193106 76 323 3.5 9.6 0.00 0.00 0.00 42 1010.0
20260504192608 76 190 4.3 9.6 0.00 0.00 0.00 40 1010.3
20260504192109 76 211 4.3 10.4 0.00 0.00 0.00 41 1010.3
20260504191607 76 232 0.9 11.3 0.00 0.00 0.00 40 1010.3
20260504191109 76 271 2.6 11.3 0.00 0.00 0.00 41 1010.6
20260504190504 75 205 5.2 11.3 0.00 0.00 0.00 43 1010.6
20260504190130 75 182 3.5 11.3 0.00 0.00 0.00 40 1010.6
20260504185607 75 148 3.5 13.0 0.00 0.00 0.00 40 1010.8
20260504185107 76 244 5.2 13.0 0.00 0.00 0.00 40 1010.8
20260504184609 75 206 1.7 7.8 0.00 0.00 0.00 46 1010.8
20260504184110 74 213 4.3 7.8 0.00 0.00 0.00 42 1011.1
20260504183615 74 223 2.6 10.4 0.00 0.00 0.00 42 1011.1
20260504183111 75 172 4.3 10.4 0.00 0.00 0.00 42 1011.1
20260504182619 75 84 0.9 10.4 0.00 0.00 0.00 47 1011.3
20260504182003 74 194 2.6 14.8 0.00 0.00 0.00 43 1011.3
20260504181605 74 184 5.2 14.8 0.00 0.00 0.00 41 1011.3
20260504181106 74 198 6.1 14.8 0.00 0.00 0.00 45 1011.7
20260504180517 74 248 2.6 10.4 0.00 0.00 0.00 44 1011.7
20260504180216 74 178 3.5 11.3 0.00 0.00 0.00 45 1011.7
20260504175622 74 178 6.1 11.3 0.00 0.00 0.00 42 1011.8
20260504175005 74 169 3.5 11.3 0.00 0.00 0.00 44 1011.8
20260504174603 74 215 4.3 8.7 0.00 0.00 0.00 49 1011.8
20260504174106 73 162 0.9 7.0 0.00 0.00 0.00 44 1012.0
20260504173607 73 234 3.5 7.0 0.00 0.00 0.00 45 1012.0
20260504173130 73 345 1.7 11.3 0.00 0.00 0.00 43 1012.0
20260504172612 73 215 4.3 11.3 0.00 0.00 0.00 44 1012.2
20260504172112 72 209 4.3 7.8 0.00 0.00 0.00 47 1012.2
20260504171614 72 234 1.7 8.7 0.00 0.00 0.00 43 1012.2
20260504171114 71 168 4.3 12.2 0.00 0.00 0.00 43 1012.4
20260504170504 72 238 4.3 12.2 0.00 0.00 0.00 43 1012.4
20260504170104 73 230 3.5 6.1 0.00 0.00 0.00 46 1012.4
20260504160120 70 47 2.6 7.8 0.00 0.00 0.00 45 1013.0
20260504151119 67 199 5.2 10.4 0.00 0.00 0.00 42 1013.9
20260504150507 67 236 4.3 9.6 0.00 0.00 0.00 50 1013.9
20260504150108 67 210 0.9 8.7 0.00 0.00 0.00 47 1013.9